This is the latest recevied weather packets stored in our database for station/object KJ4EBE. If no packets are shown the sender has not sent any weather packets the latest 10 day(s).
| Time | Temp. | Humidity | Pressure | Rain* | Wind** | Luminosity | Snow |
|---|---|---|---|---|---|---|---|
| 1777469176 | 25° C | 93% | 1012.4 hPa | 0 mm | - | 58 W/m² | - |
| 1777468870 | 25° C | 93% | 1012.1 hPa | 0 mm | - | 81 W/m² | - |
| 1777468563 | 25° C | 94% | 1012.3 hPa | 0 mm | - | 48 W/m² | - |
| 1777468259 | 25° C | 93% | 1012.2 hPa | 0 mm | - | 32 W/m² | - |
| 1777467956 | 25° C | 94% | 1012.2 hPa | 0 mm | - | 59 W/m² | - |
| 1777467651 | 25° C | 94% | 1011.8 hPa | 0 mm | - | 58 W/m² | - |
| 1777467347 | 24.44° C | 94% | 1012 hPa | 0 mm | - | 47 W/m² | - |
| 1777467043 | 24.44° C | 95% | 1011.6 hPa | 0 mm | - | 46 W/m² | - |
| 1777466741 | 24.44° C | 95% | 1011.6 hPa | 0 mm | - | 40 W/m² | - |
| 1777466437 | 24.44° C | 95% | 1011.5 hPa | 0 mm | - | 31 W/m² | - |
| 1777466133 | 24.44° C | 95% | 1011.6 hPa | 0 mm | - | 44 W/m² | - |
| 1777465830 | 24.44° C | 95% | 1011.3 hPa | 0 mm | - | 40 W/m² | - |
| 1777465520 | 24.44° C | 95% | 1011.3 hPa | 0 mm | - | 34 W/m² | - |
| 1777465220 | 24.44° C | 95% | 1011.3 hPa | 0 mm | - | 27 W/m² | - |
| 1777464915 | 24.44° C | 95% | 1011.4 hPa | 0 mm | - | 19 W/m² | - |
| 1777464610 | 24.44° C | 95% | 1011.5 hPa | 0 mm | - | 14 W/m² | - |
| 1777464307 | 23.89° C | 95% | 1011.4 hPa | 0 mm | - | 9 W/m² | - |
| 1777464002 | 24.44° C | 95% | 1011.6 hPa | 0 mm | - | 4 W/m² | - |
| 1777463697 | 23.89° C | 95% | 1011.3 hPa | 0 mm | - | 3 W/m² | - |
| 1777463392 | 23.89° C | 94% | 1011 hPa | 0 mm | - | 2 W/m² | - |
| 1777463089 | 23.89° C | 94% | 1011 hPa | 0 mm | - | 1 W/m² | - |
| 1777462784 | 23.89° C | 94% | 1010.7 hPa | 0 mm | - | 0 W/m² | - |
| 1777462479 | 23.89° C | 94% | 1010.8 hPa | 0 mm | - | 0 W/m² | - |
| 1777462177 | 23.89° C | 95% | 1010.9 hPa | 0 mm | - | 0 W/m² | - |
| 1777461873 | 23.89° C | 95% | 1010.8 hPa | 0 mm | - | 0 W/m² | - |
* Rain latest hour (hover to see other rain measurements)
** Current wind speed in m/s (hover to see current wind gust speed)